| time (UTC) | temp F | wind direction | speed MPH | gust MPH | rain 1hr in | rain 24hr in | rain mn in | humidity % | barometer mb |
| 20260505124507 | 52 | 294 | 11.0 | 0.0 | 0.00 | 0.00 | 0.00 | 59 | 977.9 |
| 20260505123023 | 52 | 298 | 7.0 | 0.0 | 0.00 | 0.00 | 0.00 | 55 | 976.3 |
| 20260505121507 | 52 | 326 | 7.0 | 0.0 | 0.00 | 0.00 | 0.00 | 55 | 976.3 |
| 20260505120026 | 51 | 325 | 8.0 | 0.0 | 0.00 | 0.00 | 0.00 | 55 | 976.3 |
| 20260505114507 | 51 | 318 | 6.0 | 0.0 | 0.00 | 0.00 | 0.00 | 61 | 976.2 |
| 20260505113015 | 51 | 332 | 9.0 | 0.0 | 0.00 | 0.00 | 0.00 | 63 | 974.7 |
| 20260505111507 | 51 | 337 | 9.0 | 0.0 | 0.00 | 0.00 | 0.00 | 63 | 974.6 |
| 20260505101507 | 51 | 287 | 11.0 | 0.0 | 0.00 | 0.00 | 0.00 | 52 | 973.1 |
| 20260505100028 | 51 | 275 | 10.0 | 0.0 | 0.00 | 0.00 | 0.00 | 52 | 973.1 |
| 20260505094507 | 52 | 278 | 10.0 | 0.0 | 0.00 | 0.00 | 0.00 | 50 | 973.3 |
| 20260505093024 | 53 | 274 | 9.0 | 0.0 | 0.00 | 0.00 | 0.00 | 48 | 972.9 |
| 20260505091507 | 53 | 257 | 10.0 | 0.0 | 0.00 | 0.00 | 0.00 | 48 | 973.0 |
| 20260505090028 | 54 | 261 | 10.0 | 0.0 | 0.00 | 0.00 | 0.00 | 48 | 973.0 |
| 20260505084505 | 54 | 274 | 9.0 | 0.0 | 0.00 | 0.00 | 0.00 | 66 | 973.3 |
| 20260505083021 | 54 | 270 | 8.0 | 0.0 | 0.00 | 0.00 | 0.00 | 67 | 972.5 |
| 20260505081507 | 53 | 257 | 8.0 | 0.0 | 0.00 | 0.00 | 0.00 | 67 | 972.5 |
| 20260505080026 | 53 | 250 | 8.0 | 0.0 | 0.00 | 0.00 | 0.00 | 49 | 972.7 |
| 20260505074507 | 54 | 246 | 9.0 | 0.0 | 0.00 | 0.00 | 0.00 | 74 | 972.0 |
| 20260505073024 | 54 | 251 | 9.0 | 0.0 | 0.00 | 0.00 | 0.00 | 74 | 972.0 |
| 20260505071507 | 56 | 244 | 13.0 | 0.0 | 0.00 | 0.00 | 0.00 | 74 | 972.0 |
| 20260505070026 | 56 | 220 | 10.0 | 0.0 | 0.00 | 0.00 | 0.00 | 74 | 972.0 |
| 20260505064507 | 56 | 241 | 9.0 | 0.0 | 0.00 | 0.00 | 0.00 | 66 | 972.4 |
| 20260505063015 | 57 | 236 | 9.0 | 0.0 | 0.00 | 0.00 | 0.00 | 76 | 971.9 |
| 20260505061507 | 57 | 238 | 9.0 | 0.0 | 0.00 | 0.00 | 0.00 | 76 | 971.9 |
| 20260505060028 | 58 | 240 | 10.0 | 0.0 | 0.00 | 0.00 | 0.00 | 76 | 971.9 |
| 20260505054507 | 58 | 242 | 11.0 | 0.0 | 0.00 | 0.00 | 0.00 | 72 | 973.2 |
| 20260505053024 | 58 | 259 | 13.0 | 0.0 | 0.00 | 0.00 | 0.00 | 62 | 971.7 |
| 20260505051507 | 60 | 256 | 15.0 | 0.0 | 0.00 | 0.00 | 0.00 | 62 | 971.8 |
| 20260505041507 | 62 | 229 | 15.0 | 0.0 | 0.01 | 0.01 | 0.01 | 65 | 971.4 |
| 20260505040027 | 61 | 207 | 15.0 | 0.0 | 0.01 | 0.01 | 0.01 | 65 | 971.4 |
| 20260505034504 | 63 | 228 | 20.0 | 0.0 | 0.00 | 0.00 | 0.00 | 55 | 971.4 |
| 20260505033023 | 62 | 215 | 17.0 | 0.0 | 0.00 | 0.00 | 0.00 | 59 | 971.4 |
| 20260505031507 | 62 | 209 | 17.0 | 0.0 | 0.00 | 0.00 | 0.00 | 59 | 971.4 |
| 20260505030027 | 62 | 204 | 17.0 | 0.0 | 0.00 | 0.00 | 0.00 | 59 | 971.4 |
| 20260505024507 | 63 | 199 | 19.0 | 0.0 | 0.00 | 0.00 | 0.00 | 51 | 971.5 |
| 20260505023023 | 64 | 209 | 19.0 | 0.0 | 0.00 | 0.00 | 0.00 | 59 | 971.5 |
| 20260505021507 | 63 | 206 | 18.0 | 0.0 | 0.00 | 0.00 | 0.00 | 59 | 971.4 |
| 20260505020026 | 64 | 206 | 17.0 | 0.0 | 0.00 | 0.00 | 0.00 | 59 | 971.4 |
| 20260505014507 | 64 | 213 | 18.0 | 0.0 | 0.00 | 0.00 | 0.00 | 50 | 970.6 |
| 20260505013021 | 65 | 206 | 18.0 | 0.0 | 0.00 | 0.00 | 0.00 | 50 | 970.6 |
| 20260505011508 | 64 | 207 | 18.0 | 0.0 | 0.00 | 0.00 | 0.00 | 50 | 970.5 |
| 20260505010024 | 65 | 206 | 17.0 | 0.0 | 0.00 | 0.00 | 0.00 | 50 | 970.5 |
| 20260505004507 | 65 | 210 | 8.0 | 0.0 | 0.00 | 0.00 | 0.00 | 41 | 971.3 |
| 20260505003021 | 66 | 204 | 7.0 | 0.0 | 0.00 | 0.00 | 0.00 | 40 | 971.9 |
| 20260505001506 | 67 | 202 | 7.0 | 0.0 | 0.00 | 0.00 | 0.00 | 40 | 971.9 |
| 20260505000019 | 68 | 210 | 7.0 | 0.0 | 0.00 | 0.00 | 0.00 | 40 | 971.9 |
| 20260504234506 | 69 | 220 | 9.0 | 0.0 | 0.00 | 0.00 | 0.00 | 34 | 972.1 |
| 20260504233022 | 70 | 227 | 12.0 | 0.0 | 0.00 | 0.00 | 0.00 | 34 | 971.9 |
| 20260504231505 | 71 | 231 | 12.0 | 0.0 | 0.00 | 0.00 | 0.00 | 34 | 971.8 |
| 20260504230024 | 71 | 235 | 14.0 | 0.0 | 0.00 | 0.00 | 0.00 | 34 | 971.8 |
| 20260504224506 | 72 | 240 | 16.0 | 0.0 | 0.00 | 0.00 | 0.00 | 34 | 971.8 |
| 20260504223022 | 72 | 246 | 17.0 | 0.0 | 0.00 | 0.00 | 0.00 | 34 | 972.2 |
| 20260504221506 | 72 | 245 | 17.0 | 0.0 | 0.00 | 0.00 | 0.00 | 34 | 972.2 |
| 20260504220027 | 72 | 243 | 18.0 | 0.0 | 0.00 | 0.00 | 0.00 | 34 | 972.2 |
| 20260504214505 | 72 | 240 | 19.0 | 0.0 | 0.00 | 0.00 | 0.00 | 35 | 973.1 |
| 20260504213022 | 73 | 235 | 19.0 | 0.0 | 0.00 | 0.00 | 0.00 | 35 | 973.1 |
| 20260504211505 | 72 | 236 | 20.0 | 0.0 | 0.00 | 0.00 | 0.00 | 31 | 972.0 |
| 20260504210024 | 72 | 231 | 19.0 | 0.0 | 0.00 | 0.00 | 0.00 | 31 | 972.0 |
| 20260504204510 | 72 | 237 | 20.0 | 0.0 | 0.00 | 0.00 | 0.00 | 31 | 972.8 |
| 20260504203013 | 73 | 236 | 20.0 | 0.0 | 0.00 | 0.00 | 0.00 | 31 | 972.8 |
| 20260504201510 | 73 | 236 | 20.0 | 0.0 | 0.00 | 0.00 | 0.00 | 31 | 972.8 |
| 20260504200018 | 73 | 236 | 21.0 | 0.0 | 0.00 | 0.00 | 0.00 | 35 | 972.1 |
| 20260504194510 | 73 | 236 | 22.0 | 0.0 | 0.00 | 0.00 | 0.00 | 27 | 972.8 |
| 20260504193023 | 73 | 231 | 21.0 | 0.0 | 0.00 | 0.00 | 0.00 | 27 | 972.8 |
| 20260504191511 | 73 | 228 | 21.0 | 0.0 | 0.00 | 0.00 | 0.00 | 27 | 972.8 |
| 20260504190025 | 73 | 225 | 21.0 | 0.0 | 0.00 | 0.00 | 0.00 | 27 | 972.8 |
| 20260504184506 | 73 | 229 | 18.0 | 0.0 | 0.00 | 0.00 | 0.00 | 23 | 974.0 |
| 20260504183024 | 73 | 227 | 18.0 | 0.0 | 0.00 | 0.00 | 0.00 | 24 | 973.6 |
| 20260504181510 | 73 | 229 | 17.0 | 0.0 | 0.00 | 0.00 | 0.00 | 24 | 973.6 |
| 20260504180027 | 72 | 232 | 17.0 | 0.0 | 0.00 | 0.00 | 0.00 | 24 | 973.6 |
| 20260504174510 | 72 | 236 | 19.0 | 0.0 | 0.00 | 0.00 | 0.00 | 32 | 974.5 |
| 20260504173014 | 72 | 238 | 19.0 | 0.0 | 0.00 | 0.00 | 0.00 | 30 | 974.4 |
| 20260504171510 | 71 | 240 | 19.0 | 0.0 | 0.00 | 0.00 | 0.00 | 30 | 974.4 |